Regional Weather Roundup
Issued by NWS

Home | Current Version | Previous Version | Graphics & Text | Print | Product List | Glossary On
Versions: 1 2 3 4 5 6 7 8 9 10 11 12 13 14 15 16 17 18 19 20 21 22 23 24 25 26 27 28 29 30 31 32 33 34 35 36 37 38 39 40 41 42 43 44 45 46 47 48 49 50
000
ASUS43 KDMX 021403
RWRIA

WEATHER ROUNDUP FOR IOWA
NATIONAL WEATHER SERVICE DES MOINES IA
900 AM CDT MON MAY 02 2016

NOTE: "FAIR" INDICATES FEW OR NO CLOUDS BELOW 12,000 FEET WITH NO
SIGNIFICANT WEATHER AND/OR OBSTRUCTIONS TO VISIBILITY.

* - THESE STATIONS ARE NOT NWS STATIONS...THUS NOT UNDER NWS
QUALITY CONTROL.  THEY ALSO DO NOT REPORT WEATHER SUCH
AS PRECIPITATION OR FOG.

IAZ001>003-012>014-020>022-031>034-043>046-021500-
   NORTHWEST IOWA

CITY           SKY/WX    TMP DP  RH WIND       PRES   REMARKS
CARROLL *      CLOUDY    46  43  87 NW6       30.13S
CHEROKEE *     MOSUNNY   43  43 100 CALM      30.14S
DENISON *      SUNNY     50 N/A N/A CALM      30.12S
LE MARS *      SUNNY     46  41  81 CALM      30.15S
ORANGE CITY *  SUNNY     48  43  81 CALM      30.13S
SHELDON *      SUNNY     48  41  76 CALM      30.12S
SIOUX CITY     SUNNY     49  42  77 NW6       30.15S
SPENCER        SUNNY     49  40  71 CALM      30.13S
STORM LAKE *   SUNNY     52  41  66 N5        30.13S
$$

IAZ055>058-069>071-079>083-090>094-021500-
   SOUTHWEST IOWA

CITY           SKY/WX    TMP DP  RH WIND       PRES   REMARKS
ATLANTIC *     SUNNY     48  46  93 N6        30.14S
AUDUBON *      MOSUNNY   46  45  93 CALM      30.14S
CLARINDA *       N/A    N/A N/A N/A MISG        N/A
COUNCIL BLFS * MOSUNNY   50  43  76 N7        30.15R
CRESTON *      CLOUDY    50  45  81 N9        30.13S
HARLAN  *      MOSUNNY   48  45  87 NE5       30.17S
LAMONI         SUNNY     50  44  80 N14       30.11R
RED OAK *      CLOUDY    54  46  76 N7        30.14S
SHENANDOAH *   CLOUDY    50  48  93 N6        30.14S
$$

IAZ047>049-059>061-072>074-084-021500-
   CENTRAL IOWA

CITY           SKY/WX    TMP DP  RH WIND       PRES   REMARKS
AMES           CLOUDY    48  46  93 CALM      30.13S
ANKENY *       CLOUDY    50  46  87 N5        30.13S
BOONE *        CLOUDY    48  45  87 W5        30.12S
CHARITON *     SUNNY     50  45  81 NE5G12    30.12R
DES MOINES     MOSUNNY   53  43  68 N8        30.13S
GRINNELL*      SUNNY     50  45  81 N9        30.12S
KNOXVILLE *    MOSUNNY   50  45  81 NE8       30.11S
MARSHALLTOWN   CLOUDY    47  44  90 CALM      30.12R
NEWTON *       SUNNY     52  46  82 N7        30.12S
PELLA *        SUNNY     51  45  78 N5        30.13S
$$

IAZ004>006-015-016-023>025-035-036-021500-
   NORTH CENTRAL IOWA

CITY           SKY/WX    TMP DP  RH WIND       PRES   REMARKS
ALGONA *       SUNNY     50  41  71 NW7       30.12S
CLARION *      CLOUDY    43  43 100 CALM      30.12S
ESTHERVILLE    SUNNY     52  43  71 NW6       30.12S
FORT DODGE *   PTSUNNY   46  39  76 CALM      30.12S
MASON CITY     CLOUDY    47  42  83 CALM      30.13R
FOREST CITY *    N/A     43  43 100 CALM      30.12R
WEBSTER CITY * CLOUDY    46  45  93 CALM      30.11R
IOWA FALLS *   CLOUDY    46  45  93 CALM      30.13S
$$

IAZ007>011-017>019-026>030-037>042-050>054-066-021500-
   NORTHEAST IOWA

CITY           SKY/WX    TMP DP  RH WIND       PRES   REMARKS
CEDAR RAPIDS   CLOUDY    50  46  86 NE7       30.10R
CHARLES CITY * SUNNY     50  46  87 SE8       30.13R
CLINTON *      CLOUDY    49  46  90 NE9       30.10R
DECORAH *      SUNNY     48  48 100 CALM      30.12R
DUBUQUE        SUNNY     50  43  77 NE8       30.10S
MONTICELLO *   PTSUNNY   50  45  81 NE5       30.11R
OELWEIN *      SUNNY     50  46  87 E6        30.12S
WATERLOO       SUNNY     51  43  74 E5        30.12S
$$

IAZ064-065-067-068-078-021500-
   EAST CENTRAL IOWA

CITY           SKY/WX    TMP DP  RH WIND       PRES   REMARKS
DAVENPORT      CLOUDY    49  46  90 N9        30.10R
IOWA CITY      CLOUDY    49  45  86 N6        30.12R
MT. PLEASANT * CLOUDY    50  50 100 N6        30.09S
MUSCATINE *    CLOUDY    50  46  87 N6        30.10R
QUAD CITIES    CLOUDY    50  45  83 NE6       30.09R
$$

IAZ062-063-075>077-085>089-095>099-021500-
   SOUTHEAST IOWA

CITY           SKY/WX    TMP DP  RH WIND       PRES   REMARKS
BURLINGTON     CLOUDY    49  48  97 NE9       30.07S FOG
FAIRFIELD *    CLOUDY    48  45  87 N10       30.10R
FORT MADISON * CLOUDY    48  46  93 N7        30.08S
KEOKUK *       CLOUDY    50  48  93 N6        30.06S
OSKALOOSA *      N/A     48  47  96 N10       30.11S
OTTUMWA        CLOUDY    46  43  89 N7        30.11R
WASHINGTON *   PTSUNNY   46  46 100 N9        30.11S
$$

ABBREVIATIONS USED IN REMARKS
   TC - TEMPERATURES IN CELSIUS
  WCI - WIND CHILL INDEX
   HX - HEAT INDEX
  VSB - VISIBILITY
$$





USA.gov is the U.S. government's official web portal to all federal, state and local government web resources and services.